Location: Fours
(44.3167°N, 6.7000°E)
Time: 22:15:50
(UTC+00:00)

Cosmos 1934 Rocket - Pass Details

Date: 16 October 2021
Orbit: 938 x 999 km, 83.0° (Epoch: 29 November)

Event Time Altitude Azimuth Distance (km) Brightness Sun altitude
Rises 17:48:57 0° 163° (SSE) 3,636 6.8 -11.8°
Reaches altitude 10° 17:51:36 10° 156° (SSE) 2,685 6.1 -12.3°
Maximum altitude 17:57:14 40° 89° (E) 1,374 4.3 -13.3°
Drops below altitude 10° 18:02:50 10° 22° (NNE) 2,671 6.1 -14.3°
Sets 18:05:27 0° 15° (NNE) 3,615 6.8 -14.7°
